Seldovia, AK

3:29 AM AKDT on July 26, 2017 (GMT -0800)
Seldovia

Weather History for PASO - December, 2013

Change the Weather History Date:

Tuesday, December 24, 2013

  Actual Average (PAHO) Record (PAHO)
Temperature  
Mean Temperature 14 °F -  
Max Temperature 19 °F 33 °F 46 °F (1962)
Min Temperature 10 °F 21 °F -9 °F (1942)
Degree Days  
Heating Degree Days 50    
Moisture  
Dew Point 12 °F    
Average Humidity 82    
Maximum Humidity 92    
Minimum Humidity 74    
Precipitation  
Precipitation 0.00 in - - ()
Sea Level Pressure  
Sea Level Pressure 29.89 in    
Wind  
Wind Speed 4 mph (South)    
Max Wind Speed 12 mph    
Max Gust Speed 21 mph    
Visibility 10 miles    
Events Snow    
Averages and records for this station are not official NWS values.
T = Trace of Precipitation, MM = Missing Value Source: NWS Daily Summary

Daily Weather History Graph

Daily Weather History Graph

Search for Another Location

Airport or City:

Trip Planner

Search our weather history database for the weather conditions in past years. The results will help you decide how hot, cold, wet, or windy it might be!

Date:

Astronomy

Dec. 24, 2013 Rise Set
Actual Time 10:04 AM AKST 4:08 PM AKST
Civil Twilight 9:08 AM AKST 5:04 PM AKST
Nautical Twilight 8:13 AM AKST 6:00 PM AKST
Astronomical Twilight 7:22 AM AKST 6:50 PM AKST
Moon 12:02 AM AKST (12/24) 12:21 PM AKST (12/24)
Length of Visible Light 7h 55m
Length of Day
6h 03m
Waning Gibbous, 57% of the Moon is Illuminated
Dec 24
Waning Gibbous
Dec 25
Last Quarter
Jan 1
New
Jan 7
First Quarter
Jan 15
Full

Hourly Weather History & Observations

Time (AKST) Temp. Windchill Dew Point Humidity Pressure Visibility Wind Dir Wind Speed Gust Speed Precip Events Conditions
12:53 AM 15.1 °F - 12.0 °F 88% 30.08 in 10.0 mi Calm Calm - N/A   Clear
1:53 AM 12.9 °F - 10.0 °F 88% 30.06 in 10.0 mi Calm Calm - N/A   Clear
3:53 AM 12.0 °F - 10.0 °F 92% 30.05 in 10.0 mi Calm Calm - N/A   Clear
4:53 AM 12.0 °F 4.1 °F 9.0 °F 88% 30.03 in 10.0 mi SSW 4.6 mph - N/A   Clear
5:53 AM 12.0 °F 5.9 °F 9.0 °F 88% 30.01 in 10.0 mi South 3.5 mph - N/A   Clear
6:53 AM 10.9 °F - 9.0 °F 92% 30.01 in 10.0 mi Calm Calm - N/A   Clear
7:53 AM 10.9 °F - 9.0 °F 92% 30.01 in 10.0 mi Calm Calm - N/A   Clear
8:53 AM 12.0 °F 5.9 °F 9.0 °F 88% 29.98 in 10.0 mi Variable 3.5 mph - N/A   Clear
9:53 AM 19.0 °F 8.2 °F 14.0 °F 81% 29.97 in 10.0 mi North 9.2 mph - N/A   Clear
10:53 AM 19.9 °F 10.1 °F 14.0 °F 78% 29.95 in 10.0 mi North 8.1 mph - N/A   Partly Cloudy
11:53 AM 19.9 °F 10.1 °F 14.0 °F 78% 29.92 in 10.0 mi North 8.1 mph - N/A   Clear
12:53 PM 19.9 °F 7.9 °F 14.0 °F 78% 29.89 in 10.0 mi NNE 11.5 mph 20.7 mph N/A   Overcast
1:53 PM 19.9 °F 12.1 °F 14.0 °F 78% 29.86 in 10.0 mi Variable 5.8 mph 18.4 mph N/A   Overcast
2:53 PM 19.9 °F 9.3 °F 14.0 °F 78% 29.83 in 10.0 mi North 9.2 mph 18.4 mph N/A   Overcast
3:53 PM 19.9 °F 10.1 °F 14.0 °F 78% 29.81 in 10.0 mi North 8.1 mph - N/A   Overcast
4:53 PM 19.9 °F 11.1 °F 14.0 °F 78% 29.79 in 9.0 mi Variable 6.9 mph - 0.00 in Snow Light Snow
5:53 PM 19.9 °F 10.1 °F 14.0 °F 78% 29.77 in 10.0 mi North 8.1 mph - 0.00 in   Overcast
6:53 PM 19.9 °F 12.1 °F 12.9 °F 74% 29.76 in 10.0 mi Variable 5.8 mph - N/A   Overcast
7:53 PM 19.9 °F 10.1 °F 14.0 °F 78% 29.75 in 10.0 mi North 8.1 mph - N/A   Overcast
8:53 PM 19.9 °F 12.1 °F 14.0 °F 78% 29.74 in 10.0 mi Variable 5.8 mph - N/A   Mostly Cloudy
9:53 PM 19.9 °F 11.1 °F 14.0 °F 78% 29.73 in 10.0 mi North 6.9 mph - N/A   Clear
10:53 PM 19.9 °F 8.6 °F 14.0 °F 78% 29.73 in 10.0 mi North 10.4 mph - N/A   Scattered Clouds
11:53 PM 19.9 °F 11.1 °F 14.0 °F 78% 29.72 in 10.0 mi North 6.9 mph - N/A   Clear